Time,TemperatureF,DewpointF,PressureIn,WindDirection,WindDirectionDegrees,WindSpeedMPH,WindSpeedGustMPH,Humidity,HourlyPrecipIn,Conditions,Clouds,dailyrainin,SoftwareType,DateUTC
2013-08-09 00:01:00,70.0,69.1,29.85,SW,229,0.0,0.0,97,0.00,,,0.00,meteobridge,2013-08-09 04:01:00,
2013-08-09 00:02:00,70.0,69.1,29.85,SW,229,0.0,0.0,97,0.00,,,0.00,meteobridge,2013-08-09 04:02:00,
2013-08-09 00:03:00,70.0,69.1,29.85,SW,229,0.0,0.0,97,0.00,,,0.00,meteobridge,2013-08-09 04:03:00,
2013-08-09 00:06:00,70.0,69.1,29.85,SW,229,0.0,0.0,97,0.00,,,0.00,meteobridge,2013-08-09 04:06:00,
2013-08-09 00:12:00,70.0,69.1,29.85,SW,229,0.0,0.0,97,0.00,,,0.00,meteobridge,2013-08-09 04:12:00,
2013-08-09 00:17:00,70.0,69.4,29.85,SW,229,0.0,0.0,98,0.00,,,0.00,meteobridge,2013-08-09 04:17:00,
2013-08-09 00:22:00,70.0,69.4,29.85,SW,229,0.0,0.0,98,0.00,,,0.00,meteobridge,2013-08-09 04:22:00,
2013-08-09 00:27:00,70.0,69.4,29.85,SW,229,0.0,0.0,98,0.00,,,0.00,meteobridge,2013-08-09 04:27:00,
2013-08-09 00:32:00,70.0,69.4,29.85,SW,229,0.0,0.0,98,0.00,,,0.00,meteobridge,2013-08-09 04:32:00,
2013-08-09 00:37:00,70.0,69.4,29.85,SW,229,0.0,0.0,98,0.00,,,0.00,meteobridge,2013-08-09 04:37:00,
2013-08-09 00:42:00,70.2,69.6,29.85,SW,229,0.0,0.0,98,0.00,,,0.00,meteobridge,2013-08-09 04:42:00,
2013-08-09 00:47:00,70.2,69.6,29.85,SW,229,0.0,0.0,98,0.00,,,0.00,meteobridge,2013-08-09 04:47:00,
2013-08-09 00:52:00,70.2,69.6,29.85,SW,229,0.0,0.0,98,0.00,,,0.00,meteobridge,2013-08-09 04:52:00,
2013-08-09 00:57:00,70.3,69.8,29.85,SW,229,0.0,0.0,98,0.00,,,0.00,meteobridge,2013-08-09 04:57:00,
2013-08-09 01:03:00,70.3,69.8,29.85,SW,229,0.0,0.0,98,0.00,,,0.00,meteobridge,2013-08-09 05:03:00,
2013-08-09 01:08:00,70.3,69.8,29.85,SW,229,0.0,0.0,98,0.00,,,0.00,meteobridge,2013-08-09 05:08:00,
2013-08-09 01:13:00,70.2,69.3,29.85,SW,229,0.0,0.0,97,0.00,,,0.00,meteobridge,2013-08-09 05:13:00,
2013-08-09 01:18:00,70.2,69.3,29.85,SW,229,0.0,0.0,97,0.00,,,0.00,meteobridge,2013-08-09 05:18:00,
2013-08-09 01:23:00,70.2,69.3,29.84,SW,229,0.0,0.0,97,0.00,,,0.00,meteobridge,2013-08-09 05:23:00,
2013-08-09 01:28:00,70.2,69.3,29.84,SW,229,0.0,0.0,97,0.00,,,0.00,meteobridge,2013-08-09 05:28:00,
2013-08-09 01:33:00,70.2,69.3,29.84,SW,229,0.0,0.0,97,0.00,,,0.00,meteobridge,2013-08-09 05:33:00,
2013-08-09 01:38:00,70.2,69.3,29.84,SW,229,0.0,0.0,97,0.00,,,0.00,meteobridge,2013-08-09 05:38:00,
2013-08-09 01:44:00,70.2,69.6,29.84,SW,229,0.0,0.0,98,0.00,,,0.00,meteobridge,2013-08-09 05:44:00,
2013-08-09 01:49:00,70.2,69.6,29.84,SW,229,0.0,0.0,98,0.00,,,0.00,meteobridge,2013-08-09 05:49:00,
2013-08-09 01:54:00,70.3,69.8,29.84,SW,229,0.0,0.0,98,0.00,,,0.00,meteobridge,2013-08-09 05:54:00,
2013-08-09 01:59:00,70.3,69.8,29.84,SW,229,0.0,0.0,98,0.00,,,0.00,meteobridge,2013-08-09 05:59:00,
2013-08-09 02:04:00,70.3,69.8,29.84,SW,229,0.0,0.0,98,0.00,,,0.00,meteobridge,2013-08-09 06:04:00,
2013-08-09 02:09:00,70.3,69.8,29.84,SW,229,0.0,0.0,98,0.00,,,0.00,meteobridge,2013-08-09 06:09:00,
2013-08-09 02:15:00,70.3,69.8,29.85,SW,229,0.0,0.0,98,0.00,,,0.00,meteobridge,2013-08-09 06:15:00,
2013-08-09 02:20:00,70.3,69.8,29.85,SW,229,0.0,0.0,98,0.00,,,0.00,meteobridge,2013-08-09 06:20:00,
2013-08-09 02:25:00,70.3,69.8,29.85,SW,229,0.0,0.0,98,0.00,,,0.00,meteobridge,2013-08-09 06:25:00,
2013-08-09 02:30:00,70.5,70.0,29.84,SW,229,0.0,0.0,98,0.00,,,0.00,meteobridge,2013-08-09 06:30:00,
2013-08-09 02:35:00,70.5,70.0,29.84,SW,229,0.0,0.0,98,0.00,,,0.00,meteobridge,2013-08-09 06:35:00,
2013-08-09 02:40:00,70.5,70.0,29.84,SW,229,0.0,0.0,98,0.00,,,0.00,meteobridge,2013-08-09 06:40:00,
2013-08-09 02:45:00,70.5,70.0,29.84,SW,229,0.0,0.0,98,0.00,,,0.00,meteobridge,2013-08-09 06:45:00,
2013-08-09 02:51:00,70.5,70.0,29.84,SW,229,0.0,0.0,98,0.00,,,0.00,meteobridge,2013-08-09 06:51:00,
2013-08-09 02:56:00,70.5,70.0,29.84,SW,229,0.0,0.0,98,0.00,,,0.00,meteobridge,2013-08-09 06:56:00,
2013-08-09 03:01:00,70.5,70.0,29.84,SW,229,0.0,0.0,98,0.00,,,0.00,meteobridge,2013-08-09 07:01:00,
2013-08-09 03:06:00,70.5,70.0,29.84,SW,229,0.0,0.0,98,0.00,,,0.00,meteobridge,2013-08-09 07:06:00,
2013-08-09 03:11:00,70.5,70.0,29.84,SW,229,0.0,0.0,98,0.00,,,0.00,meteobridge,2013-08-09 07:11:00,
2013-08-09 03:16:00,70.5,70.0,29.84,SW,229,0.0,0.0,98,0.00,,,0.00,meteobridge,2013-08-09 07:16:00,
2013-08-09 03:22:00,70.5,70.0,29.84,SW,229,0.0,0.0,98,0.00,,,0.00,meteobridge,2013-08-09 07:22:00,
2013-08-09 03:27:00,70.5,70.0,29.84,SW,229,0.0,0.0,98,0.00,,,0.00,meteobridge,2013-08-09 07:27:00,
2013-08-09 03:32:00,70.7,70.2,29.84,SW,229,0.0,0.0,98,0.00,,,0.00,meteobridge,2013-08-09 07:32:00,
2013-08-09 03:37:00,70.7,70.2,29.85,SW,229,0.0,0.0,98,0.00,,,0.00,meteobridge,2013-08-09 07:37:00,
2013-08-09 03:42:00,70.9,70.3,29.85,SW,229,0.0,0.0,98,0.00,,,0.00,meteobridge,2013-08-09 07:42:00,
2013-08-09 03:47:00,70.9,70.3,29.85,SW,229,0.0,0.0,98,0.00,,,0.00,meteobridge,2013-08-09 07:47:00,
2013-08-09 03:52:00,70.7,70.2,29.84,SW,229,0.0,0.0,98,0.00,,,0.00,meteobridge,2013-08-09 07:52:00,
2013-08-09 03:57:00,70.7,70.2,29.84,SW,229,0.0,0.0,98,0.00,,,0.00,meteobridge,2013-08-09 07:57:00,
2013-08-09 04:02:00,70.9,70.3,29.84,SW,229,0.0,0.0,98,0.00,,,0.00,meteobridge,2013-08-09 08:02:00,
2013-08-09 04:08:00,70.7,70.2,29.84,SW,229,0.0,0.0,98,0.00,,,0.00,meteobridge,2013-08-09 08:08:00,
2013-08-09 04:13:00,70.9,70.3,29.84,SW,229,0.0,0.0,98,0.00,,,0.00,meteobridge,2013-08-09 08:13:00,
2013-08-09 04:18:00,71.1,70.5,29.84,SW,229,0.0,0.0,98,0.00,,,0.00,meteobridge,2013-08-09 08:18:00,
2013-08-09 04:23:00,71.1,70.5,29.84,SW,229,0.0,0.0,98,0.00,,,0.00,meteobridge,2013-08-09 08:23:00,
2013-08-09 04:28:00,71.2,70.3,29.84,SW,229,0.0,0.0,97,0.00,,,0.00,meteobridge,2013-08-09 08:28:00,
2013-08-09 04:33:00,71.2,70.3,29.84,West,266,0.0,0.9,97,0.00,,,0.00,meteobridge,2013-08-09 08:33:00,
2013-08-09 04:38:00,71.4,70.5,29.85,West,266,0.0,0.0,97,0.00,,,0.00,meteobridge,2013-08-09 08:38:00,
2013-08-09 04:43:00,71.4,70.5,29.84,West,266,0.0,0.0,97,0.00,,,0.00,meteobridge,2013-08-09 08:43:00,
2013-08-09 04:48:00,71.4,70.5,29.84,West,267,0.0,0.0,97,0.00,,,0.00,meteobridge,2013-08-09 08:48:00,
2013-08-09 04:54:00,71.4,70.5,29.84,West,266,0.0,0.0,97,0.00,,,0.00,meteobridge,2013-08-09 08:54:00,
2013-08-09 04:59:00,71.4,70.5,29.84,West,267,0.0,0.0,97,0.00,,,0.00,meteobridge,2013-08-09 08:59:00,
2013-08-09 05:04:00,71.2,70.3,29.84,West,266,0.0,0.0,97,0.00,,,0.00,meteobridge,2013-08-09 09:04:00,
2013-08-09 05:09:00,71.2,70.3,29.84,West,266,0.0,0.0,97,0.01,,,0.01,meteobridge,2013-08-09 09:09:00,
2013-08-09 05:14:00,71.2,70.3,29.84,West,267,0.0,0.0,97,0.01,,,0.01,meteobridge,2013-08-09 09:14:00,
2013-08-09 05:19:00,71.2,70.3,29.83,West,267,0.0,0.0,97,0.01,,,0.01,meteobridge,2013-08-09 09:19:00,
2013-08-09 05:24:00,71.1,70.2,29.83,West,267,0.0,0.0,97,0.01,,,0.01,meteobridge,2013-08-09 09:24:00,
2013-08-09 05:30:00,71.1,70.2,29.83,West,266,0.0,0.0,97,0.01,,,0.01,meteobridge,2013-08-09 09:30:00,
2013-08-09 05:35:00,71.1,70.2,29.83,West,266,0.0,0.0,97,0.01,,,0.01,meteobridge,2013-08-09 09:35:00,
2013-08-09 05:40:00,71.1,70.2,29.83,West,266,0.0,0.0,97,0.01,,,0.01,meteobridge,2013-08-09 09:40:00,
2013-08-09 05:45:00,71.1,70.2,29.83,West,267,0.0,0.0,97,0.01,,,0.01,meteobridge,2013-08-09 09:45:00,
2013-08-09 05:50:00,71.1,70.5,29.83,West,267,0.0,0.0,98,0.01,,,0.01,meteobridge,2013-08-09 09:50:00,
2013-08-09 05:55:00,71.1,70.2,29.83,West,267,0.0,0.0,97,0.01,,,0.01,meteobridge,2013-08-09 09:55:00,
2013-08-09 06:00:00,71.1,70.2,29.83,West,267,0.0,0.0,97,0.01,,,0.01,meteobridge,2013-08-09 10:00:00,
2013-08-09 06:05:00,70.9,70.0,29.83,West,267,0.0,0.0,97,0.00,,,0.01,meteobridge,2013-08-09 10:05:00,
2013-08-09 06:10:00,71.1,70.2,29.83,West,267,0.0,0.0,97,0.00,,,0.01,meteobridge,2013-08-09 10:10:00,
2013-08-09 06:15:00,71.1,70.2,29.83,West,266,0.0,0.0,97,0.00,,,0.01,meteobridge,2013-08-09 10:15:00,
2013-08-09 06:20:00,70.9,70.3,29.83,West,266,0.0,0.0,98,0.00,,,0.01,meteobridge,2013-08-09 10:20:00,
2013-08-09 06:26:00,70.9,70.3,29.83,West,267,0.0,0.0,98,0.00,,,0.01,meteobridge,2013-08-09 10:26:00,
2013-08-09 06:31:00,70.9,70.3,29.83,West,267,0.0,0.0,98,0.01,,,0.02,meteobridge,2013-08-09 10:31:00,
2013-08-09 06:36:00,70.9,70.3,29.84,West,267,0.0,0.0,98,0.03,,,0.04,meteobridge,2013-08-09 10:36:00,
2013-08-09 06:41:00,70.9,70.3,29.83,West,267,0.0,0.0,98,0.07,,,0.08,meteobridge,2013-08-09 10:41:00,
2013-08-09 06:46:00,70.9,70.3,29.83,West,266,0.0,0.0,98,0.12,,,0.13,meteobridge,2013-08-09 10:46:00,
2013-08-09 06:51:00,70.9,70.3,29.83,West,267,0.0,0.0,98,0.13,,,0.14,meteobridge,2013-08-09 10:51:00,
2013-08-09 06:57:00,70.9,70.3,29.83,West,266,0.0,0.0,98,0.14,,,0.15,meteobridge,2013-08-09 10:57:00,
2013-08-09 07:01:00,70.9,70.3,29.83,West,266,0.0,0.0,98,0.14,,,0.15,meteobridge,2013-08-09 11:01:00,
2013-08-09 07:07:00,70.9,70.3,29.83,West,266,0.0,0.0,98,0.14,,,0.15,meteobridge,2013-08-09 11:07:00,
2013-08-09 07:12:00,70.9,70.3,29.83,West,266,0.0,0.0,98,0.14,,,0.15,meteobridge,2013-08-09 11:12:00,
2013-08-09 07:17:00,70.9,70.3,29.83,West,267,0.0,0.0,98,0.14,,,0.15,meteobridge,2013-08-09 11:17:00,
2013-08-09 07:22:00,71.1,70.5,29.83,West,266,0.0,0.0,98,0.14,,,0.15,meteobridge,2013-08-09 11:22:00,
2013-08-09 07:27:00,71.1,70.5,29.83,West,266,0.0,0.0,98,0.15,,,0.16,meteobridge,2013-08-09 11:27:00,
2013-08-09 07:32:00,71.2,70.7,29.83,West,266,0.0,0.0,98,0.14,,,0.16,meteobridge,2013-08-09 11:32:00,
2013-08-09 07:37:00,71.2,70.7,29.83,West,266,0.0,0.0,98,0.11,,,0.16,meteobridge,2013-08-09 11:37:00,
2013-08-09 07:43:00,71.2,70.7,29.83,West,266,0.0,0.0,98,0.07,,,0.16,meteobridge,2013-08-09 11:43:00,
2013-08-09 07:47:00,71.4,70.9,29.83,West,266,0.0,0.0,98,0.02,,,0.16,meteobridge,2013-08-09 11:47:00,
2013-08-09 07:53:00,71.4,70.9,29.84,WNW,301,0.0,0.9,98,0.02,,,0.16,meteobridge,2013-08-09 11:53:00,
2013-08-09 07:58:00,71.2,70.7,29.83,WNW,301,0.0,0.0,98,0.01,,,0.16,meteobridge,2013-08-09 11:58:00,
2013-08-09 08:03:00,71.2,70.7,29.83,WNW,301,0.0,0.0,98,0.01,,,0.16,meteobridge,2013-08-09 12:03:00,
2013-08-09 08:08:00,71.2,70.7,29.83,WNW,301,0.0,0.0,98,0.01,,,0.16,meteobridge,2013-08-09 12:08:00,
2013-08-09 08:13:00,71.2,70.7,29.83,WNW,301,0.0,0.0,98,0.01,,,0.16,meteobridge,2013-08-09 12:13:00,
2013-08-09 08:18:00,71.4,70.9,29.83,WNW,302,0.0,0.0,98,0.01,,,0.16,meteobridge,2013-08-09 12:18:00,
2013-08-09 08:23:00,71.6,71.2,29.83,WNW,302,0.0,0.0,99,0.01,,,0.16,meteobridge,2013-08-09 12:23:00,
2013-08-09 08:28:00,71.8,71.4,29.83,WNW,302,0.0,0.0,99,0.00,,,0.16,meteobridge,2013-08-09 12:28:00,
2013-08-09 08:33:00,71.8,71.4,29.83,WNW,302,0.0,0.0,99,0.00,,,0.16,meteobridge,2013-08-09 12:33:00,
2013-08-09 08:39:00,72.0,71.4,29.83,WNW,301,0.0,0.0,98,0.00,,,0.16,meteobridge,2013-08-09 12:39:00,
2013-08-09 08:44:00,72.0,71.4,29.83,WNW,301,0.0,0.0,98,0.00,,,0.16,meteobridge,2013-08-09 12:44:00,
2013-08-09 08:49:00,72.0,71.4,29.83,WNW,298,0.0,0.0,98,0.00,,,0.16,meteobridge,2013-08-09 12:49:00,
2013-08-09 08:54:00,72.0,71.4,29.83,WNW,285,0.0,0.0,98,0.00,,,0.16,meteobridge,2013-08-09 12:54:00,
2013-08-09 08:59:00,72.1,71.6,29.83,WNW,284,0.0,0.0,98,0.00,,,0.16,meteobridge,2013-08-09 12:59:00,
2013-08-09 09:04:00,72.3,71.8,29.84,WNW,283,0.0,0.0,98,0.00,,,0.16,meteobridge,2013-08-09 13:04:00,
2013-08-09 09:09:00,72.5,72.0,29.84,WNW,283,0.0,0.0,98,0.00,,,0.16,meteobridge,2013-08-09 13:09:00,
2013-08-09 09:14:00,72.7,72.1,29.84,WNW,283,0.0,0.0,98,0.00,,,0.16,meteobridge,2013-08-09 13:14:00,
2013-08-09 09:19:00,72.7,72.1,29.84,WNW,283,0.0,0.0,98,0.00,,,0.16,meteobridge,2013-08-09 13:19:00,
2013-08-09 09:25:00,72.9,72.3,29.83,WNW,283,0.0,0.0,98,0.00,,,0.16,meteobridge,2013-08-09 13:25:00,
2013-08-09 09:30:00,72.9,72.3,29.84,WNW,283,0.0,0.0,98,0.00,,,0.16,meteobridge,2013-08-09 13:30:00,
2013-08-09 09:35:00,73.0,72.5,29.83,WNW,283,0.0,0.0,98,0.00,,,0.16,meteobridge,2013-08-09 13:35:00,
2013-08-09 09:40:00,73.0,72.5,29.83,WNW,283,0.0,0.0,98,0.00,,,0.16,meteobridge,2013-08-09 13:40:00,
2013-08-09 09:45:00,73.0,72.5,29.83,West,281,0.0,0.0,98,0.00,,,0.16,meteobridge,2013-08-09 13:45:00,
2013-08-09 09:50:00,73.2,72.3,29.83,West,270,0.0,0.0,97,0.00,,,0.16,meteobridge,2013-08-09 13:50:00,
2013-08-09 09:55:00,73.2,72.3,29.83,West,269,0.0,0.0,97,0.00,,,0.16,meteobridge,2013-08-09 13:55:00,
2013-08-09 10:00:00,73.2,72.3,29.83,West,274,0.0,0.0,97,0.00,,,0.16,meteobridge,2013-08-09 14:00:00,
2013-08-09 10:05:00,73.4,72.5,29.83,West,274,0.0,0.0,97,0.00,,,0.16,meteobridge,2013-08-09 14:05:00,
2013-08-09 10:11:00,73.4,72.5,29.83,West,274,0.0,0.0,97,0.00,,,0.16,meteobridge,2013-08-09 14:11:00,
2013-08-09 10:16:00,73.2,72.3,29.84,West,274,0.0,0.0,97,0.00,,,0.16,meteobridge,2013-08-09 14:16:00,
2013-08-09 10:21:00,73.2,72.0,29.84,WNW,290,0.0,0.0,96,0.00,,,0.16,meteobridge,2013-08-09 14:21:00,
2013-08-09 10:26:00,73.4,72.1,29.84,WNW,288,0.0,0.0,96,0.00,,,0.16,meteobridge,2013-08-09 14:26:00,
2013-08-09 10:31:00,73.6,72.7,29.84,West,281,0.0,0.0,97,0.00,,,0.16,meteobridge,2013-08-09 14:31:00,
2013-08-09 10:36:00,73.8,72.5,29.84,WNW,282,0.0,0.0,96,0.00,,,0.16,meteobridge,2013-08-09 14:36:00,
2013-08-09 10:41:00,73.8,72.3,29.84,West,278,0.0,0.0,95,0.00,,,0.16,meteobridge,2013-08-09 14:41:00,
2013-08-09 10:46:00,73.6,72.1,29.84,West,281,0.0,0.0,95,0.02,,,0.18,meteobridge,2013-08-09 14:46:00,
2013-08-09 10:52:00,73.4,72.0,29.84,West,278,0.0,0.0,95,0.02,,,0.18,meteobridge,2013-08-09 14:52:00,
2013-08-09 10:57:00,73.2,72.0,29.84,WNW,285,0.0,0.0,96,0.02,,,0.18,meteobridge,2013-08-09 14:57:00,
2013-08-09 11:02:00,73.2,71.8,29.84,West,267,0.0,2.0,95,0.02,,,0.18,meteobridge,2013-08-09 15:02:00,
2013-08-09 11:07:00,73.6,72.3,29.84,West,271,0.9,2.0,96,0.02,,,0.18,meteobridge,2013-08-09 15:07:00,
2013-08-09 11:12:00,73.9,72.7,29.84,West,268,0.0,0.9,96,0.02,,,0.18,meteobridge,2013-08-09 15:12:00,
2013-08-09 11:17:00,74.7,73.2,29.84,WSW,250,0.9,0.9,95,0.02,,,0.18,meteobridge,2013-08-09 15:17:00,
2013-08-09 11:22:00,74.7,72.5,29.84,NW,305,0.9,2.0,93,0.02,,,0.18,meteobridge,2013-08-09 15:22:00,
2013-08-09 11:27:00,75.0,73.2,29.84,NW,305,2.9,2.9,94,0.02,,,0.18,meteobridge,2013-08-09 15:27:00,
2013-08-09 11:32:00,75.0,72.5,29.84,West,273,0.9,2.0,92,0.02,,,0.18,meteobridge,2013-08-09 15:32:00,
2013-08-09 11:37:00,75.0,72.1,29.84,NW,310,2.9,4.0,91,0.02,,,0.18,meteobridge,2013-08-09 15:37:00,
2013-08-09 11:42:00,75.2,72.3,29.84,West,269,0.9,4.9,91,0.01,,,0.18,meteobridge,2013-08-09 15:42:00,
2013-08-09 11:47:00,75.7,72.7,29.84,West,261,0.9,4.0,90,0.00,,,0.18,meteobridge,2013-08-09 15:47:00,
2013-08-09 11:52:00,75.4,72.3,29.84,West,269,2.9,2.9,90,0.00,,,0.18,meteobridge,2013-08-09 15:52:00,
2013-08-09 11:57:00,75.4,72.3,29.84,West,277,0.9,2.0,90,0.00,,,0.18,meteobridge,2013-08-09 15:57:00,
2013-08-09 12:02:00,75.4,72.0,29.84,NW,309,2.0,4.0,89,0.00,,,0.18,meteobridge,2013-08-09 16:02:00,
2013-08-09 12:08:00,75.2,72.3,29.84,NW,307,0.9,2.9,91,0.00,,,0.18,meteobridge,2013-08-09 16:08:00,
2013-08-09 12:13:00,75.0,71.6,29.84,West,280,0.0,4.0,89,0.00,,,0.18,meteobridge,2013-08-09 16:13:00,
2013-08-09 12:18:00,75.0,71.2,29.84,NW,307,2.9,4.9,88,0.00,,,0.18,meteobridge,2013-08-09 16:18:00,
2013-08-09 12:23:00,74.8,71.8,29.85,WNW,297,6.9,6.9,90,0.00,,,0.18,meteobridge,2013-08-09 16:23:00,
2013-08-09 12:28:00,74.5,71.4,29.85,WNW,288,0.9,2.0,90,0.00,,,0.18,meteobridge,2013-08-09 16:28:00,
2013-08-09 12:33:00,74.1,71.1,29.85,West,276,0.9,2.9,90,0.00,,,0.18,meteobridge,2013-08-09 16:33:00,
2013-08-09 12:38:00,73.6,70.5,29.86,WNW,285,2.9,4.0,90,0.00,,,0.18,meteobridge,2013-08-09 16:38:00,
2013-08-09 12:43:00,73.0,70.3,29.86,West,275,2.0,4.9,91,0.00,,,0.18,meteobridge,2013-08-09 16:43:00,
2013-08-09 12:48:00,72.7,70.0,29.86,NW,312,0.0,4.0,91,0.00,,,0.18,meteobridge,2013-08-09 16:48:00,
2013-08-09 12:53:00,72.9,70.2,29.86,WNW,285,0.0,2.9,91,0.00,,,0.18,meteobridge,2013-08-09 16:53:00,
2013-08-09 12:58:00,73.0,70.3,29.86,West,278,0.9,2.0,91,0.00,,,0.18,meteobridge,2013-08-09 16:58:00,
2013-08-09 13:03:00,73.0,70.0,29.86,WNW,289,2.0,2.9,90,0.00,,,0.18,meteobridge,2013-08-09 17:03:00,
2013-08-09 13:08:00,72.9,69.8,29.86,WNW,303,2.0,2.9,90,0.00,,,0.18,meteobridge,2013-08-09 17:08:00,
2013-08-09 13:13:00,72.9,70.2,29.86,West,272,0.0,0.9,91,0.00,,,0.18,meteobridge,2013-08-09 17:13:00,
2013-08-09 13:18:00,73.4,70.5,29.85,WNW,288,0.9,0.9,91,0.00,,,0.18,meteobridge,2013-08-09 17:18:00,
2013-08-09 13:23:00,73.9,70.9,29.85,WNW,293,2.9,2.9,90,0.00,,,0.18,meteobridge,2013-08-09 17:23:00,
2013-08-09 13:28:00,74.5,71.1,29.85,West,266,0.0,2.9,89,0.00,,,0.18,meteobridge,2013-08-09 17:28:00,
2013-08-09 13:34:00,74.1,70.0,29.86,West,274,2.0,6.9,87,0.00,,,0.18,meteobridge,2013-08-09 17:34:00,
2013-08-09 13:39:00,73.9,69.8,29.86,WSW,253,2.0,6.0,87,0.00,,,0.18,meteobridge,2013-08-09 17:39:00,
2013-08-09 13:44:00,73.9,70.2,29.86,NW,311,0.9,4.0,88,0.00,,,0.18,meteobridge,2013-08-09 17:44:00,
2013-08-09 13:49:00,74.1,70.3,29.86,West,279,2.0,4.0,88,0.00,,,0.18,meteobridge,2013-08-09 17:49:00,
2013-08-09 13:54:00,74.1,70.3,29.86,NW,306,2.9,4.0,88,0.00,,,0.18,meteobridge,2013-08-09 17:54:00,
2013-08-09 13:59:00,73.9,70.2,29.86,NW,307,0.9,4.0,88,0.00,,,0.18,meteobridge,2013-08-09 17:59:00,
2013-08-09 14:04:00,73.8,70.0,29.86,West,265,0.0,2.0,88,0.00,,,0.18,meteobridge,2013-08-09 18:04:00,
2013-08-09 14:09:00,73.8,69.6,29.86,WSW,255,0.9,2.9,87,0.00,,,0.18,meteobridge,2013-08-09 18:09:00,
2013-08-09 14:14:00,73.8,70.0,29.85,WNW,297,0.0,2.0,88,0.00,,,0.18,meteobridge,2013-08-09 18:14:00,
2013-08-09 14:19:00,73.8,70.0,29.86,NW,306,2.0,2.0,88,0.00,,,0.18,meteobridge,2013-08-09 18:19:00,
2013-08-09 14:24:00,73.8,70.3,29.86,WNW,285,0.9,0.9,89,0.00,,,0.18,meteobridge,2013-08-09 18:24:00,
2013-08-09 14:30:00,73.8,70.0,29.86,NW,312,0.0,0.9,88,0.00,,,0.18,meteobridge,2013-08-09 18:30:00,
2013-08-09 14:35:00,73.4,69.6,29.86,West,277,0.0,2.0,88,0.00,,,0.18,meteobridge,2013-08-09 18:35:00,
2013-08-09 14:40:00,73.2,69.4,29.86,WNW,293,0.9,2.0,88,0.00,,,0.18,meteobridge,2013-08-09 18:40:00,
2013-08-09 14:45:00,73.0,69.3,29.86,West,278,0.0,2.0,88,0.00,,,0.18,meteobridge,2013-08-09 18:45:00,
2013-08-09 14:50:00,73.0,69.3,29.87,WNW,301,0.0,0.9,88,0.00,,,0.18,meteobridge,2013-08-09 18:50:00,
2013-08-09 14:55:00,73.0,69.3,29.87,WNW,295,0.9,4.0,88,0.00,,,0.18,meteobridge,2013-08-09 18:55:00,
2013-08-09 15:00:00,73.0,69.6,29.87,WNW,283,0.9,0.9,89,0.00,,,0.18,meteobridge,2013-08-09 19:00:00,
2013-08-09 15:05:00,73.0,69.6,29.87,West,280,0.0,2.0,89,0.00,,,0.18,meteobridge,2013-08-09 19:05:00,
2013-08-09 15:10:00,73.4,69.6,29.87,West,275,0.0,2.0,88,0.00,,,0.18,meteobridge,2013-08-09 19:10:00,
2013-08-09 15:15:00,73.6,69.8,29.87,WNW,284,0.9,2.0,88,0.00,,,0.18,meteobridge,2013-08-09 19:15:00,
2013-08-09 15:21:00,73.4,69.3,29.87,NW,311,0.9,2.0,87,0.00,,,0.18,meteobridge,2013-08-09 19:21:00,
2013-08-09 15:26:00,73.2,69.4,29.87,NW,309,0.0,2.9,88,0.00,,,0.18,meteobridge,2013-08-09 19:26:00,
2013-08-09 15:31:00,73.0,69.3,29.87,West,268,0.9,2.9,88,0.00,,,0.18,meteobridge,2013-08-09 19:31:00,
2013-08-09 15:36:00,72.9,69.1,29.87,WNW,295,2.0,2.9,88,0.00,,,0.18,meteobridge,2013-08-09 19:36:00,
2013-08-09 15:41:00,72.7,68.9,29.87,WNW,296,2.0,2.0,88,0.00,,,0.18,meteobridge,2013-08-09 19:41:00,
2013-08-09 15:46:00,72.9,69.4,29.86,WNW,285,0.0,0.0,89,0.00,,,0.18,meteobridge,2013-08-09 19:46:00,
2013-08-09 15:51:00,73.2,69.1,29.86,West,279,0.0,2.9,87,0.00,,,0.18,meteobridge,2013-08-09 19:51:00,
2013-08-09 15:56:00,73.2,69.1,29.86,NW,304,0.0,2.9,87,0.00,,,0.18,meteobridge,2013-08-09 19:56:00,
2013-08-09 16:01:00,73.2,68.7,29.87,WNW,295,2.0,2.9,86,0.00,,,0.18,meteobridge,2013-08-09 20:01:00,
2013-08-09 16:06:00,73.0,68.5,29.86,WNW,297,0.0,0.9,86,0.00,,,0.18,meteobridge,2013-08-09 20:06:00,
2013-08-09 16:11:00,73.2,69.1,29.86,WNW,289,0.0,0.0,87,0.00,,,0.18,meteobridge,2013-08-09 20:11:00,
2013-08-09 16:16:00,73.6,69.1,29.86,West,280,4.9,4.9,86,0.00,,,0.18,meteobridge,2013-08-09 20:16:00,
2013-08-09 16:21:00,73.8,68.9,29.86,West,281,0.0,2.9,85,0.00,,,0.18,meteobridge,2013-08-09 20:21:00,
2013-08-09 16:27:00,74.1,69.3,29.87,West,281,0.0,0.9,85,0.00,,,0.18,meteobridge,2013-08-09 20:27:00,
2013-08-09 16:32:00,74.5,70.0,29.86,West,276,2.0,2.0,86,0.00,,,0.18,meteobridge,2013-08-09 20:32:00,
2013-08-09 16:37:00,74.7,69.1,29.86,NW,307,0.0,0.9,83,0.00,,,0.18,meteobridge,2013-08-09 20:37:00,
2013-08-09 16:42:00,74.8,69.6,29.87,NW,304,0.9,0.9,84,0.00,,,0.18,meteobridge,2013-08-09 20:42:00,
2013-08-09 16:47:00,75.0,69.4,29.87,WNW,302,0.0,0.0,83,0.00,,,0.18,meteobridge,2013-08-09 20:47:00,
2013-08-09 16:52:00,75.0,69.1,29.87,WNW,288,0.0,2.0,82,0.00,,,0.18,meteobridge,2013-08-09 20:52:00,
2013-08-09 16:57:00,75.0,69.1,29.87,WNW,289,2.0,2.0,82,0.00,,,0.18,meteobridge,2013-08-09 20:57:00,
2013-08-09 17:03:00,75.0,68.7,29.87,WNW,303,0.0,0.9,81,0.00,,,0.18,meteobridge,2013-08-09 21:03:00,
2013-08-09 17:08:00,75.4,69.1,29.87,WSW,252,0.9,0.9,81,0.00,,,0.18,meteobridge,2013-08-09 21:08:00,
2013-08-09 17:13:00,75.9,70.0,29.87,NW,309,2.9,2.9,82,0.00,,,0.18,meteobridge,2013-08-09 21:13:00,
2013-08-09 17:18:00,75.9,69.3,29.86,WNW,288,0.9,2.0,80,0.00,,,0.18,meteobridge,2013-08-09 21:18:00,
2013-08-09 17:23:00,75.9,69.6,29.86,WSW,245,0.9,2.0,81,0.00,,,0.18,meteobridge,2013-08-09 21:23:00,
2013-08-09 17:28:00,76.1,69.8,29.87,West,272,0.9,2.0,81,0.00,,,0.18,meteobridge,2013-08-09 21:28:00,
2013-08-09 17:33:00,76.3,69.3,29.87,West,270,0.9,0.9,79,0.00,,,0.18,meteobridge,2013-08-09 21:33:00,
2013-08-09 17:39:00,76.3,70.0,29.87,West,268,0.9,0.9,81,0.00,,,0.18,meteobridge,2013-08-09 21:39:00,
2013-08-09 17:44:00,76.5,69.8,29.87,West,274,4.9,4.9,80,0.00,,,0.18,meteobridge,2013-08-09 21:44:00,
2013-08-09 17:49:00,76.6,69.6,29.87,WNW,283,0.9,2.0,79,0.00,,,0.18,meteobridge,2013-08-09 21:49:00,
2013-08-09 17:54:00,76.5,68.7,29.87,WNW,302,0.0,2.0,77,0.00,,,0.18,meteobridge,2013-08-09 21:54:00,
2013-08-09 17:59:00,76.3,68.2,29.87,West,277,2.0,2.9,76,0.00,,,0.18,meteobridge,2013-08-09 21:59:00,
2013-08-09 18:04:00,76.1,68.4,29.87,West,278,2.0,2.0,77,0.00,,,0.18,meteobridge,2013-08-09 22:04:00,
2013-08-09 18:09:00,76.3,68.9,29.87,West,280,0.9,2.0,78,0.00,,,0.18,meteobridge,2013-08-09 22:09:00,
2013-08-09 18:14:00,76.1,68.0,29.87,West,281,0.9,4.0,76,0.00,,,0.18,meteobridge,2013-08-09 22:14:00,
2013-08-09 18:19:00,75.9,68.2,29.87,WNW,297,0.0,2.0,77,0.00,,,0.18,meteobridge,2013-08-09 22:19:00,
2013-08-09 18:24:00,75.9,68.2,29.87,WNW,302,0.9,2.9,77,0.00,,,0.18,meteobridge,2013-08-09 22:24:00,
2013-08-09 18:29:00,76.3,69.3,29.87,West,277,0.0,2.0,79,0.00,,,0.18,meteobridge,2013-08-09 22:29:00,
2013-08-09 18:34:00,75.9,68.2,29.87,West,280,2.0,2.0,77,0.00,,,0.18,meteobridge,2013-08-09 22:34:00,
2013-08-09 18:39:00,76.1,68.4,29.88,NW,314,2.9,2.9,77,0.00,,,0.18,meteobridge,2013-08-09 22:39:00,
2013-08-09 18:44:00,76.1,67.6,29.87,NW,304,0.9,4.0,75,0.00,,,0.18,meteobridge,2013-08-09 22:44:00,
2013-08-09 18:49:00,75.9,67.5,29.88,WNW,295,0.0,2.0,75,0.00,,,0.18,meteobridge,2013-08-09 22:49:00,
2013-08-09 18:55:00,75.9,67.8,29.88,WNW,296,0.9,2.9,76,0.00,,,0.18,meteobridge,2013-08-09 22:55:00,
2013-08-09 19:00:00,75.7,68.0,29.88,West,262,0.9,0.9,77,0.00,,,0.18,meteobridge,2013-08-09 23:00:00,
2013-08-09 19:05:00,75.7,68.4,29.88,West,278,0.9,0.9,78,0.00,,,0.18,meteobridge,2013-08-09 23:05:00,
2013-08-09 19:10:00,75.7,68.0,29.88,West,277,2.0,2.9,77,0.00,,,0.18,meteobridge,2013-08-09 23:10:00,
2013-08-09 19:15:00,75.6,67.5,29.88,NW,307,0.9,2.0,76,0.00,,,0.18,meteobridge,2013-08-09 23:15:00,
2013-08-09 19:20:00,75.4,67.3,29.88,WNW,294,0.0,0.9,76,0.00,,,0.18,meteobridge,2013-08-09 23:20:00,
2013-08-09 19:25:00,75.4,67.6,29.88,WNW,284,0.0,0.9,77,0.00,,,0.18,meteobridge,2013-08-09 23:25:00,
2013-08-09 19:30:00,75.2,67.5,29.88,West,269,0.9,2.0,77,0.00,,,0.18,meteobridge,2013-08-09 23:30:00,
2013-08-09 19:36:00,75.0,67.6,29.89,West,273,0.0,0.0,78,0.00,,,0.18,meteobridge,2013-08-09 23:36:00,
2013-08-09 19:41:00,74.8,68.2,29.89,West,273,0.0,0.9,80,0.00,,,0.18,meteobridge,2013-08-09 23:41:00,
2013-08-09 19:46:00,74.5,68.5,29.89,West,273,0.0,0.0,82,0.00,,,0.18,meteobridge,2013-08-09 23:46:00,
2013-08-09 19:51:00,73.9,68.2,29.89,West,273,0.0,0.0,82,0.00,,,0.18,meteobridge,2013-08-09 23:51:00,
2013-08-09 19:56:00,73.6,67.8,29.89,West,273,0.0,0.0,82,0.00,,,0.18,meteobridge,2013-08-09 23:56:00,
2013-08-09 20:01:00,73.2,68.4,29.89,West,273,0.0,0.0,85,0.00,,,0.18,meteobridge,2013-08-10 00:01:00,
2013-08-09 20:07:00,72.9,68.0,29.89,West,273,0.0,0.0,85,0.00,,,0.18,meteobridge,2013-08-10 00:07:00,
2013-08-09 20:12:00,72.3,67.8,29.90,West,273,0.0,0.0,86,0.00,,,0.18,meteobridge,2013-08-10 00:12:00,
2013-08-09 20:17:00,72.0,67.8,29.89,West,273,0.0,0.0,87,0.00,,,0.18,meteobridge,2013-08-10 00:17:00,
2013-08-09 20:22:00,71.4,67.3,29.90,West,273,0.0,0.0,87,0.00,,,0.18,meteobridge,2013-08-10 00:22:00,
2013-08-09 20:28:00,71.1,67.6,29.90,West,273,0.0,0.0,89,0.00,,,0.18,meteobridge,2013-08-10 00:28:00,
2013-08-09 20:33:00,70.5,67.1,29.90,West,273,0.0,0.0,89,0.00,,,0.18,meteobridge,2013-08-10 00:33:00,
2013-08-09 20:38:00,70.3,67.3,29.90,West,273,0.0,0.0,90,0.00,,,0.18,meteobridge,2013-08-10 00:38:00,
2013-08-09 20:43:00,70.0,67.3,29.90,West,273,0.0,0.0,91,0.00,,,0.18,meteobridge,2013-08-10 00:43:00,
2013-08-09 20:48:00,69.6,66.6,29.91,West,273,0.0,0.0,90,0.00,,,0.18,meteobridge,2013-08-10 00:48:00,
2013-08-09 20:53:00,69.4,66.7,29.91,West,273,0.0,0.0,91,0.00,,,0.18,meteobridge,2013-08-10 00:53:00,
2013-08-09 20:59:00,69.3,66.9,29.91,West,273,0.0,0.0,92,0.00,,,0.18,meteobridge,2013-08-10 00:59:00,
2013-08-09 21:04:00,68.9,66.6,29.91,West,273,0.0,0.0,92,0.00,,,0.18,meteobridge,2013-08-10 01:04:00,
2013-08-09 21:09:00,68.5,66.4,29.92,West,273,0.0,0.0,93,0.00,,,0.18,meteobridge,2013-08-10 01:09:00,
2013-08-09 21:14:00,68.4,66.2,29.92,West,273,0.0,0.0,93,0.00,,,0.18,meteobridge,2013-08-10 01:14:00,
2013-08-09 21:19:00,68.2,66.0,29.92,West,273,0.0,0.0,93,0.00,,,0.18,meteobridge,2013-08-10 01:19:00,
2013-08-09 21:24:00,68.0,66.2,29.92,West,273,0.0,0.0,94,0.00,,,0.18,meteobridge,2013-08-10 01:24:00,
2013-08-09 21:29:00,67.8,66.0,29.92,West,273,0.0,0.0,94,0.00,,,0.18,meteobridge,2013-08-10 01:29:00,
2013-08-09 21:35:00,67.6,65.8,29.92,West,272,0.0,0.0,94,0.00,,,0.18,meteobridge,2013-08-10 01:35:00,
2013-08-09 21:40:00,67.5,65.3,29.93,West,273,0.0,0.0,93,0.00,,,0.18,meteobridge,2013-08-10 01:40:00,
2013-08-09 21:45:00,67.3,65.1,29.93,West,273,0.0,0.0,93,0.00,,,0.18,meteobridge,2013-08-10 01:45:00,
2013-08-09 21:50:00,67.3,65.1,29.93,West,273,0.0,0.0,93,0.00,,,0.18,meteobridge,2013-08-10 01:50:00,
2013-08-09 21:56:00,67.1,64.9,29.93,West,273,0.0,0.0,93,0.00,,,0.18,meteobridge,2013-08-10 01:56:00,
2013-08-09 22:01:00,66.9,64.8,29.93,West,273,0.0,0.0,93,0.00,,,0.18,meteobridge,2013-08-10 02:01:00,
2013-08-09 22:06:00,66.7,64.9,29.93,West,273,0.0,0.0,94,0.00,,,0.18,meteobridge,2013-08-10 02:06:00,
2013-08-09 22:11:00,66.6,64.8,29.93,West,273,0.0,0.0,94,0.00,,,0.18,meteobridge,2013-08-10 02:11:00,
2013-08-09 22:16:00,66.4,64.6,29.93,West,273,0.0,0.0,94,0.00,,,0.18,meteobridge,2013-08-10 02:16:00,
2013-08-09 22:21:00,66.2,64.4,29.93,West,273,0.0,0.0,94,0.00,,,0.18,meteobridge,2013-08-10 02:21:00,
2013-08-09 22:27:00,66.0,64.2,29.93,West,273,0.0,0.0,94,0.00,,,0.18,meteobridge,2013-08-10 02:27:00,
2013-08-09 22:32:00,65.8,64.0,29.93,West,273,0.0,0.0,94,0.00,,,0.18,meteobridge,2013-08-10 02:32:00,
2013-08-09 22:37:00,65.7,63.9,29.94,West,273,0.0,0.0,94,0.00,,,0.18,meteobridge,2013-08-10 02:37:00,
2013-08-09 22:42:00,65.7,63.9,29.94,West,273,0.0,0.0,94,0.00,,,0.18,meteobridge,2013-08-10 02:42:00,
2013-08-09 22:47:00,65.5,63.7,29.94,West,273,0.0,0.0,94,0.00,,,0.18,meteobridge,2013-08-10 02:47:00,
2013-08-09 22:52:00,65.5,63.7,29.95,West,273,0.0,0.0,94,0.00,,,0.18,meteobridge,2013-08-10 02:52:00,
2013-08-09 22:57:00,65.5,63.7,29.95,West,273,0.0,0.0,94,0.00,,,0.18,meteobridge,2013-08-10 02:57:00,
2013-08-09 23:03:00,65.3,63.9,29.95,West,273,0.0,0.0,95,0.00,,,0.18,meteobridge,2013-08-10 03:03:00,
2013-08-09 23:08:00,65.1,63.7,29.95,West,273,0.0,0.0,95,0.00,,,0.18,meteobridge,2013-08-10 03:08:00,
2013-08-09 23:13:00,65.1,63.7,29.95,West,273,0.0,0.0,95,0.00,,,0.18,meteobridge,2013-08-10 03:13:00,
2013-08-09 23:18:00,64.9,63.5,29.95,West,273,0.0,0.0,95,0.00,,,0.18,meteobridge,2013-08-10 03:18:00,
2013-08-09 23:23:00,64.9,63.5,29.96,West,273,0.0,0.0,95,0.00,,,0.18,meteobridge,2013-08-10 03:23:00,
2013-08-09 23:28:00,64.9,63.5,29.96,West,273,0.0,0.0,95,0.00,,,0.18,meteobridge,2013-08-10 03:28:00,
2013-08-09 23:34:00,64.8,63.3,29.96,West,273,0.0,0.0,95,0.00,,,0.18,meteobridge,2013-08-10 03:34:00,
2013-08-09 23:39:00,64.8,63.3,29.96,West,273,0.0,0.0,95,0.00,,,0.18,meteobridge,2013-08-10 03:39:00,
2013-08-09 23:44:00,64.6,63.1,29.96,West,273,0.0,0.0,95,0.00,,,0.18,meteobridge,2013-08-10 03:44:00,
2013-08-09 23:49:00,64.6,63.1,29.96,West,273,0.0,0.0,95,0.00,,,0.18,meteobridge,2013-08-10 03:49:00,
2013-08-09 23:55:00,64.6,63.5,29.96,West,273,0.0,0.0,96,0.00,,,0.18,meteobridge,2013-08-10 03:55:00,